sat.trackr.live / text

‹ back to catalog

STARLINK-36708

NORAD 67713 · 2026-025W

PAYLOAD ACTIVE UNKNOWN

§ Identity

Operator
Country
US
Launch date
2026-02-07
Launch site
AFWTR
Launch vehicle
Mass (kg)
RCS (m²)

Purposes: comms

External: N2YO · Heavens-Above · Gunter

§ Orbital elements

Epoch: 2026-05-24T21:11:00.997152Z

Period
93.91 min
Inclination
97.2844°
Eccentricity
0.0000486
Mean motion
15.33455599 rev/d
Perigee alt
465.2 km
Apogee alt
465.8 km
Semi-major
6,843.6 km
B*
6.6418e-4
RAAN
255.6514°
Arg perigee
102.8412°
Mean anomaly
257.2885°
Rev number
1,763

§ Raw data

STARLINK-367081 67713U 26025W   26144.88265043  .00021435  00000+0  66418-3 0  99942 67713  97.2844 255.6514 0000486 102.8412 257.2885 15.33455599 17637

JSON: /api/v1/satellites/67713 · /tle

For live sub-satellite position, see the globe view (requires WebGL).

§ Visibility from observer

Set your observer location to see the next 7 days of passes ≥ 10°. The values pass through the URL so the page stays shareable.

No JS? Fill the form by hand. The geolocation button needs JavaScript.